Regional Weather Roundup
Issued by NWS Jackson, KY

Home | Current Version | Previous Version | Text Only | Print | Product List | Glossary Off
Versions: 1 2 3 4 5 6 7 8 9 10 11 12 13 14 15 16 17 18 19 20 21 22 23 24 25 26 27 28 29 30 31 32 33 34 35 36 37 38 39 40 41 42 43 44 45 46 47 48 49 50

000
ASUS43 KJKL 031810
RWRJKL

EAST KENTUCKY HOURLY WEATHER ROUNDUP
NATIONAL WEATHER SERVICE JACKSON KY
100 PM EST TUE MAR 03 2015

NOTE: "FAIR" INDICATES FEW OR NO CLOUDS BELOW 12,000 FEET WITH
NO SIGNIFICANT WEATHER AND/OR OBSTRUCTIONS TO VISIBILITY.

* THESE REPORTS ARE NOT UNDER NWS QUALITY CONTROL AND MAY NOT
  REPORT WEATHER SUCH AS PRECIPITATION AND FOG.

KYZ079-080-083-085-087-088-110-112-115-119-120-031900
...EASTERN KENTUCKY...

CITY           SKY/WX    TMP DP  RH WIND       PRES   REMARKS
JACKSON        CLOUDY    52  43  71 SW5       30.00F
6HR MIN TEMP:  32; 6HR MAX TEMP:  52;

LONDON         CLOUDY    57  47  69 S14       30.02F
6HR MIN TEMP:  37; 6HR MAX TEMP:  57; 6HR PCP: TRACE;

SOMERSET*      CLOUDY    55  50  82 S7        30.02F
MONTICELLO*    CLOUDY    61  55  80 S15       30.04F
6HR MIN TEMP:  39; 6HR MAX TEMP:  62;

MIDDLESBORO*   CLOUDY    43  40  88 S3        30.12F
6HR MIN TEMP:  36; 6HR MAX TEMP:  43;

BLACK MTN*       N/A     39  39 100 S5          N/A
PIKEVILLE APT* CLOUDY    54  45  71 S9        29.99F
BIG SANDY*     CLOUDY    51  42  71 S5        30.00F
6HR MIN TEMP:  32; 6HR MAX TEMP:  51;

MOREHEAD APT*  LGT RAIN  43  41  93 S9        29.96F
$$

KYZ035-036-041-042-044-050-067-078-099-031900
...CENTRAL KENTUCKY...

CITY           SKY/WX    TMP DP  RH WIND       PRES   REMARKS
MT STERLING*   LGT RAIN  46  45  93 SW16      29.95F
FLEMING/MASON* DRIZZLE   39  37  93 S9        29.94F WCI  33
DANVILLE*      RAIN      50  46  87 SW15      29.99F
RICHMOND*      CLOUDY    54  50  87 S14       29.97F
LEXINGTON      CLOUDY    48  46  93 S15       29.94F
6HR MIN TEMP:  32; 6HR MAX TEMP:  48; 6HR PCP:  0.04;

FRANKFORT      CLOUDY    50  47  89 SW13      29.91F
6HR MIN TEMP:  32; 6HR MAX TEMP:  49; 6HR PCP:  0.01;

$$

KYZ091>093-OHZ055-061-077-WVZ005-015-034-035-042-031900
...SOUTHERN OHIO/WEST VIRGINIA...

CITY           SKY/WX    TMP DP  RH WIND       PRES   REMARKS
COVINGTON      LGT RAIN  39  37  92 S15G21    29.86F FOG     WCI  31
COLUMBUS       RAIN      34  28  80 S8G16     29.88F WCI  27
DAYTON         CLOUDY    34  32  92 S15       29.83F FOG     WCI  24
WILMINGTON     LGT RAIN  35  33  92 S16       29.84F FOG     WCI  25
HUNTINGTON     LGT RAIN  40  37  89 SW3       29.97F
CHARLESTON     CLOUDY    48  41  76 S9        29.99F
PINEVILLE*     CLOUDY    47  40  78 MISG      30.10F
BECKLEY        CLOUDY    38  31  76 SE13G20   30.06F WCI  30
BLUEFIELD      CLOUDY    44  33  65 SE7G17    30.09F
$$

VAZ002-007-008-TNZ017-027-036-066-071-031900
...SOUTHWEST VIRGINIA/EAST TENNESSEE...

CITY           SKY/WX    TMP DP  RH WIND       PRES   REMARKS
WISE*          CLOUDY    46  45  93 SW10      30.09F
JONESVILLE*    FOG       37  37 100 CALM      30.15F VSB 1/4
ABINGDON*      CLOUDY    44  39  83 NE3       30.12F
BRISTOL        CLOUDY    50  40  68 CALM      30.11F
KNOXVILLE      CLOUDY    47  43  86 W3        30.13F
OAK RIDGE      CLOUDY    45  43  93 W6        30.14F FOG
CROSSVILLE     CLOUDY    53  50  89 S13G18    30.10F
NASHVILLE      CLOUDY    60  55  83 SW15      30.04F
$$

...KEY TO REMARKS...
VSB - VISIBILITY IN MILES
WCI - WIND CHILL INDEX
HX  - HEAT INDEX

$$


USA.gov is the U.S. government's official web portal to all federal, state and local government web resources and services.